Regional Weather Roundup
Issued by NWS

Home | Current Version | Previous Version | Text Only | Print | Product List | Glossary Off
Versions: 1 2 3 4 5 6 7 8 9 10 11 12 13 14 15 16 17 18 19 20 21 22 23 24 25 26 27 28 29 30 31 32 33 34 35 36 37 38 39 40 41 42 43 44 45 46 47 48 49 50

000
ASUS43 KOAX 232110
RWRNE

WEATHER ROUNDUP FOR NEBRASKA
NATIONAL WEATHER SERVICE OMAHA NE
400 PM CDT MON OCT 23 2017

NOTES: SATELLITE DATA IS BEING USED TO AUGMENT CLOUD COVER ABOVE
       12000 FEET.
       "FAIR" INDICATES FEW OR NO CLOUDS BELOW 12,000 FEET WITH NO
       SIGNIFICANT WEATHER AND/OR OBSTRUCTIONS TO VISIBILITY.


NEZ001>004-019>022-054>056-232200-
NEBRASKA PANHANDLE

CITY           SKY/WX    TMP DP  RH WIND       PRES   REMARKS
SCOTTSBLUFF    MOSUNNY   56  17  21 NW32G39   30.37F
ALLIANCE       MOSUNNY   55  17  22 NW39G49   30.33S
CHADRON        SUNNY     59  13  16 NW26G40   30.34S
GORDON         FAIR      57  20  23 N33G46    30.29S
KIMBALL        SUNNY     55  18  23 N29G35    30.39S
SIDNEY         SUNNY     57  18  21 N36G43    30.36S
$$

NEZ057>060-069>072-079>082-232200-
SOUTHWEST NEBRASKA

CITY           SKY/WX    TMP DP  RH WIND       PRES   REMARKS
NORTH PLATTE   MOSUNNY   61  20  20 N30G43    30.24F
IMPERIAL       SUNNY     61  15  16 N35G47    30.30S
LEXINGTON      MOSUNNY   61  23  22 N30G37    30.22R
MCCOOK         SUNNY     65  17  15 NW32G46   30.24R
OGALLALA       SUNNY     61  16  17 NW32G43   30.30R
$$

NEZ005>010-023>029-035>040-094-232200-
NORTH CENTRAL NEBRASKA

CITY           SKY/WX    TMP DP  RH WIND       PRES   REMARKS
VALENTINE      MOSUNNY   57  28  33 NW18G35   30.21S
AINSWORTH      LGT RAIN  50  33  53 NW22G54   30.21S
BROKEN BOW     PTSUNNY   59  28  30 N32G45    30.21R
O`NEILL        CLOUDY    55  32  41 NW29G43   30.15R
ORD            SUNNY     59  26  28 N33G48    30.15R
THEDFORD       MOSUNNY   58  23  26 NW24G52   30.24R
$$

NEZ041-046>049-061>064-073>077-083>087-232200-
SOUTH CENTRAL NEBRASKA

CITY           SKY/WX    TMP DP  RH WIND       PRES   REMARKS
GRAND ISLAND   MOSUNNY   60  26  27 NW21G43   30.13R
AURORA         PTSUNNY   60  25  26 NW28G35   30.13R
HASTINGS       PTSUNNY   63  23  21 NW31G44   30.15S
HEBRON         PTSUNNY   64  25  23 N29G37    30.11R
HOLDREGE       MOSUNNY   63  28  27 N21G32    30.19S
KEARNEY        MOSUNNY   63  24  22 N32G38    30.17S
YORK           MOSUNNY   63  27  25 NW31G48   30.10R
$$

NEZ011>018-030>034-042>045-232200-
NORTHEAST NEBRASKA

CITY           SKY/WX    TMP DP  RH WIND       PRES   REMARKS
NORFOLK        PTSUNNY   58  31  35 NW35G46   30.07R
ALBION         PTSUNNY   60  32  34 NW30G46   30.11R
BLAIR          CLOUDY    60  33  35 NW26G36   30.00R
COLUMBUS       MOSUNNY   61  30  31 NW28G46   30.07R
FREMONT        PTSUNNY   61  30  31 NW35G45   30.04R
TEKAMAH        CLOUDY    59  32  36 NW22G37   30.01R
WAYNE          CLOUDY    58  29  33 NW22G41   30.05R
$$

NEZ050>053-065>068-078-088>093-232200-
SOUTHEAST NEBRASKA

CITY           SKY/WX    TMP DP  RH WIND       PRES   REMARKS
LINCOLN        MOSUNNY   65  28  24 MISG      30.05S
OMAHA EPPLEY   PTSUNNY   61  32  33 NW26G39   29.98R
BEATRICE       MOSUNNY   65  31  28 N32G40    30.06S
FALLS CITY     MOSUNNY   64  32  30 NW23G44   29.99S
NEBRASKA CITY  MOSUNNY   65  32  29 NW29G40   30.00S
PLATTSMOUTH    PTSUNNY   62  32  32 NW31G41   29.99R HAZE
$$

NEZ044-045-051>053-067-232200-
OMAHA AREA

CITY           SKY/WX    TMP DP  RH WIND       PRES   REMARKS
OMAHA EPPLEY   PTSUNNY   61  32  33 NW26G39   29.98R
BLAIR          CLOUDY    60  33  35 NW26G36   30.00R
FREMONT        PTSUNNY   61  30  31 NW35G45   30.04R
MILLARD        CLOUDY    63  33  32 NW26G35   30.01R
OFFUTT AFB     CLOUDY    62  32  32 NW23G41   29.99R
PLATTSMOUTH    PTSUNNY   62  32  32 NW31G41   29.99R HAZE
WAHOO          MOCLDY    63  29  28 NW26G44   30.03R
$$




USA.gov is the U.S. government's official web portal to all federal, state and local government web resources and services.